Flag for United Kingdom Weather past 2 weeks in Cardiff, Wales, United Kingdom

Now
54 °F

Mostly cloudy.


Feels Like: 49 °F
Forecast: 55 / 60 °F
Wind: 14 mph from West

Location: Wales Airport

Current Time: Oct 25, 2014 at 5:44:11 AM

Latest Report: Oct 25, 2014 at 5:20 AM


Visibility: N/A

Pressure: 30.01 "Hg

Humidity: 77%

Dew point: 46 °F

Location of CardiffLocation

Historic Weather in Cardiff — Graph

°F

Cardiff temperature yesterday

Maximum temperature yesterday: 59 °F (at 6:50 AM)
Minimum temperature yesterday: 50 °F (at 11:20 PM)
Average temperature yesterday: 56 °F

Past Weeks' High & Low Weather Summary

 TemperatureHumidityPressure
High64 °F (Oct 18, 6:50 AM)100% (Oct 11, 5:20 AM)30.33 "Hg (Oct 11, 5:20 AM)
Low45 °F (Oct 12, 8:20 AM)58% (Oct 21, 3:50 PM)29.47 "Hg (Oct 16, 12:50 AM)
Average56 °F87%29.83 "Hg
* Reported Oct 10 4:20 AM — Oct 25 4:50 AM, Cardiff, Weather by CustomWeather, © 2014

Note: Actual official high and low records may vary slightly from our data, if they occured in-between our weather recording intervals... More about our weather records

Advertising

Cardiff weather history for previous 24 hours

 ConditionsComfort  
Time TempWeatherWind HumidityBarometerVisibility
4:50 AM
Oct 25
54 °FOvercast.12 mph82%30.01 "HgN/A
4:20 AM54 °FOvercast.10 mph82%30.01 "HgN/A
3:50 AM54 °FMostly cloudy.14 mph82%30.01 "HgN/A
3:20 AM54 °FMostly cloudy.9 mph82%30.01 "HgN/A
2:50 AM52 °FOvercast.6 mph88%30.01 "HgN/A
2:20 AM52 °FPassing clouds.5 mph82%30.01 "HgN/A
1:50 AM52 °FOvercast.3 mph82%30.01 "HgN/A
1:20 AM52 °FOvercast.5 mph82%30.01 "HgN/A
12:50 AM52 °FOvercast.6 mph88%30.01 "HgN/A
12:20 AM54 °FOvercast.9 mph77%30.01 "HgN/A
11:50 PM
Oct 24
54 °FOvercast.7 mph77%30.01 "HgN/A
11:20 PM50 °FPassing clouds.5 mph88%30.01 "HgN/A
10:50 PM54 °FOvercast.7 mph77%29.98 "HgN/A
10:20 PM52 °FOvercast.6 mph82%29.98 "HgN/A
9:50 PM52 °FOvercast.6 mph77%29.98 "HgN/A
9:20 PM52 °FPassing clouds.9 mph77%29.98 "HgN/A
8:50 PM54 °FPassing clouds.13 mph72%29.98 "HgN/A
8:20 PM52 °FPartly cloudy.6 mph88%29.98 "HgN/A
7:50 PM52 °FPassing clouds.9 mph88%29.98 "HgN/A
7:20 PM54 °FPassing clouds.13 mph88%29.95 "HgN/A
6:50 PM54 °FPartly sunny.9 mph82%29.95 "HgN/A
6:20 PM54 °FSprinkles. Broken clouds.12 mph94%29.95 "HgN/A
5:50 PM54 °FScattered showers. Broken clouds.10 mph94%29.92 "HgN/A
5:20 PM54 °FScattered clouds.12 mph94%29.92 "HgN/A
4:50 PM55 °FScattered clouds.13 mph88%29.92 "HgN/A
4:20 PM55 °FScattered clouds.12 mph88%29.92 "HgN/A
3:50 PM55 °FPartly sunny.17 mph94%29.92 "HgN/A
3:20 PM57 °FBroken clouds.10 mph100%29.89 "HgN/A
2:50 PM57 °FScattered showers. Broken clouds.12 mph100%29.89 "HgN/A
2:20 PM57 °FRain. Fog.8 mph100%29.89 "Hg3 mi
1:50 PM57 °FDrizzle. Fog.7 mph100%29.92 "Hg2 mi
1:20 PM59 °FDrizzle. Fog.5 mph94%29.92 "Hg4 mi
12:50 PM59 °FDrizzle. Mostly cloudy.3 mph94%29.92 "Hg5 mi
12:20 PM59 °FScattered showers. Partly sunny.3 mph94%29.92 "HgN/A
11:50 AM59 °FBroken clouds.5 mph100%29.95 "HgN/A
11:20 AM57 °FRain. Fog.6 mph100%29.95 "Hg1 mi
10:50 AM57 °FDrizzle. Cloudy.6 mph100%29.95 "Hg1 mi
10:20 AM57 °FDrizzle. Mostly cloudy.7 mph100%29.95 "Hg1 mi
9:50 AM57 °FDrizzle. Low clouds.7 mph100%29.95 "Hg1 mi
9:20 AM57 °FDrizzle. Low clouds.7 mph100%29.95 "Hg1 mi
8:50 AM57 °FLight rain. Low clouds.7 mph100%29.95 "Hg4 mi
8:20 AM57 °FOvercast.7 mph100%29.95 "HgN/A
7:50 AM59 °FOvercast.7 mph88%29.92 "HgN/A
7:20 AM59 °FOvercast.5 mph88%29.92 "HgN/A
6:50 AM59 °FOvercast.7 mph88%29.92 "HgN/A
6:20 AM57 °FPassing clouds.7 mph94%29.92 "HgN/A
5:50 AM57 °FOvercast.6 mph94%29.95 "HgN/A
5:20 AM57 °FMostly cloudy.7 mph94%29.95 "HgN/A
Weather by CustomWeather, © 2014

See weather overviewHow to use our weather pages